TimeCST,TemperatureF,Dew PointF,Humidity,Sea Level PressureIn,VisibilityMPH,Wind Direction,Wind SpeedMPH,Gust SpeedMPH,PrecipitationIn,Events,Conditions,WindDirDegrees,DateUTC
12:15 AM,27.3,24.3,88,29.88,7.0,South,8.1,-,N/A,,Scattered Clouds,190,2013-02-05 06:15:00
12:35 AM,27.0,23.9,88,29.88,7.0,SSW,6.9,-,N/A,,Scattered Clouds,200,2013-02-05 06:35:00
12:55 AM,26.4,23.5,89,29.88,7.0,SSW,3.5,-,N/A,,Clear,200,2013-02-05 06:55:00
1:15 AM,25.7,23.0,89,29.87,7.0,SSW,3.5,-,N/A,,Scattered Clouds,200,2013-02-05 07:15:00
1:35 AM,26.6,23.5,88,29.87,7.0,SW,3.5,-,N/A,,Overcast,220,2013-02-05 07:35:00
1:55 AM,25.7,23.0,89,29.88,7.0,WSW,3.5,-,N/A,,Overcast,250,2013-02-05 07:55:00
2:15 AM,25.5,22.6,89,29.89,7.0,WNW,3.5,-,N/A,,Scattered Clouds,290,2013-02-05 08:15:00
2:35 AM,24.8,22.1,89,29.89,7.0,WNW,3.5,-,N/A,,Clear,300,2013-02-05 08:35:00
2:55 AM,25.3,22.6,89,29.88,7.0,WSW,5.8,-,N/A,,Clear,240,2013-02-05 08:55:00
3:15 AM,25.2,22.6,90,29.88,7.0,WSW,4.6,-,N/A,,Clear,250,2013-02-05 09:15:00
3:35 AM,24.8,22.3,90,29.88,7.0,Calm,Calm,-,N/A,,Clear,0,2013-02-05 09:35:00
3:55 AM,24.6,22.1,90,29.88,7.0,Calm,Calm,-,N/A,,Clear,0,2013-02-05 09:55:00
4:15 AM,25.2,22.8,91,29.87,7.0,SSW,4.6,-,N/A,,Mostly Cloudy,200,2013-02-05 10:15:00
4:35 AM,26.2,23.7,90,29.87,7.0,SW,4.6,-,N/A,,Overcast,220,2013-02-05 10:35:00
4:55 AM,26.4,23.7,90,29.88,7.0,Calm,Calm,-,N/A,,Overcast,0,2013-02-05 10:55:00
5:15 AM,26.6,23.9,90,29.88,7.0,SW,3.5,-,N/A,,Overcast,220,2013-02-05 11:15:00
5:35 AM,26.6,23.9,90,29.87,7.0,SSW,4.6,-,N/A,,Overcast,210,2013-02-05 11:35:00
5:55 AM,27.1,24.3,89,29.87,7.0,SSW,6.9,-,N/A,,Overcast,200,2013-02-05 11:55:00
6:15 AM,27.5,24.8,90,29.88,7.0,Calm,Calm,-,N/A,,Overcast,0,2013-02-05 12:15:00
6:35 AM,28.4,24.8,86,29.89,7.0,Calm,Calm,-,N/A,,Overcast,0,2013-02-05 12:35:00
6:55 AM,27.7,24.6,88,29.90,7.0,Calm,Calm,-,N/A,,Mostly Cloudy,0,2013-02-05 12:55:00
7:15 AM,27.1,24.1,88,29.91,7.0,Calm,Calm,-,N/A,,Scattered Clouds,0,2013-02-05 13:15:00
7:35 AM,25.7,22.8,89,29.91,7.0,Calm,Calm,-,N/A,,Scattered Clouds,0,2013-02-05 13:35:00
7:55 AM,25.5,23.2,91,29.91,5.0,SW,3.5,-,N/A,,Clear,220,2013-02-05 13:55:00
8:15 AM,27.9,25.3,90,29.91,7.0,SW,4.6,-,N/A,,Clear,230,2013-02-05 14:15:00
8:35 AM,29.8,26.8,88,29.93,7.0,West,3.5,-,N/A,,Clear,270,2013-02-05 14:35:00
8:55 AM,31.8,27.5,84,29.93,10.0,West,4.6,-,N/A,,Scattered Clouds,270,2013-02-05 14:55:00
9:15 AM,33.3,28.2,82,29.94,10.0,WNW,3.5,-,N/A,,Mostly Cloudy,290,2013-02-05 15:15:00
9:35 AM,35.6,29.5,78,29.95,10.0,West,5.8,-,N/A,,Scattered Clouds,270,2013-02-05 15:35:00
9:55 AM,37.6,29.7,73,29.97,10.0,West,4.6,-,N/A,,Clear,270,2013-02-05 15:55:00
10:15 AM,39.4,30.7,71,29.98,10.0,WNW,5.8,-,N/A,,Clear,290,2013-02-05 16:15:00
10:35 AM,42.4,30.0,61,29.99,10.0,NW,11.5,-,N/A,,Clear,310,2013-02-05 16:35:00
10:55 AM,45.0,30.9,58,29.99,10.0,NW,10.4,-,N/A,,Clear,320,2013-02-05 16:55:00
11:15 AM,48.0,30.6,51,30.00,10.0,NW,11.5,-,N/A,,Clear,320,2013-02-05 17:15:00
11:35 AM,49.3,30.4,48,30.01,10.0,NNW,13.8,-,N/A,,Clear,330,2013-02-05 17:35:00
11:55 AM,49.5,29.3,46,30.01,10.0,NNW,17.3,-,N/A,,Clear,340,2013-02-05 17:55:00
12:15 PM,50.0,28.8,44,30.01,10.0,NNW,12.7,-,N/A,,Clear,340,2013-02-05 18:15:00
12:35 PM,50.4,29.5,45,30.00,10.0,NNW,10.4,-,N/A,,Clear,340,2013-02-05 18:35:00
12:55 PM,51.1,28.6,42,30.00,10.0,NNW,12.7,17.3,N/A,,Clear,340,2013-02-05 18:55:00
1:15 PM,51.8,27.9,40,30.00,10.0,North,12.7,-,N/A,,Clear,350,2013-02-05 19:15:00
1:35 PM,52.0,28.2,40,30.00,10.0,NNW,11.5,17.3,N/A,,Clear,340,2013-02-05 19:35:00
1:55 PM,52.2,27.5,39,30.00,10.0,NNW,15.0,-,N/A,,Clear,330,2013-02-05 19:55:00
2:15 PM,52.5,25.5,35,30.00,10.0,NNW,15.0,-,N/A,,Clear,330,2013-02-05 20:15:00
2:35 PM,52.7,26.4,36,30.01,10.0,NW,15.0,-,N/A,,Clear,320,2013-02-05 20:35:00
2:55 PM,52.3,26.4,37,30.01,10.0,NW,12.7,-,N/A,,Clear,320,2013-02-05 20:55:00
3:15 PM,52.3,25.7,36,30.01,10.0,NNW,10.4,17.3,N/A,,Clear,330,2013-02-05 21:15:00
3:35 PM,52.2,24.3,34,30.01,10.0,NNW,12.7,-,N/A,,Clear,340,2013-02-05 21:35:00
3:55 PM,52.2,23.7,33,30.01,10.0,NNW,10.4,-,N/A,,Clear,330,2013-02-05 21:55:00
4:15 PM,51.8,24.1,34,30.02,10.0,NW,5.8,-,N/A,,Clear,310,2013-02-05 22:15:00
4:35 PM,51.6,24.6,35,30.01,10.0,NNW,6.9,-,N/A,,Clear,330,2013-02-05 22:35:00
4:55 PM,50.7,26.6,39,30.01,10.0,NNW,4.6,-,N/A,,Clear,330,2013-02-05 22:55:00
5:15 PM,48.9,27.1,43,30.02,10.0,NW,3.5,-,N/A,,Clear,320,2013-02-05 23:15:00
5:35 PM,45.0,27.3,50,30.01,10.0,NNW,3.5,-,N/A,,Clear,340,2013-02-05 23:35:00
5:55 PM,40.8,26.1,56,30.02,10.0,NNW,3.5,-,N/A,,Clear,330,2013-02-05 23:55:00
6:15 PM,42.8,27.3,54,30.02,10.0,Calm,Calm,-,N/A,,Clear,0,2013-02-06 00:15:00
6:35 PM,41.0,27.0,57,30.02,10.0,Calm,Calm,-,N/A,,Clear,0,2013-02-06 00:35:00
6:55 PM,39.0,27.0,62,30.03,10.0,NE,4.6,-,N/A,,Clear,40,2013-02-06 00:55:00
7:15 PM,37.9,27.9,67,30.03,10.0,ENE,4.6,-,N/A,,Clear,60,2013-02-06 01:15:00
7:35 PM,35.6,26.6,70,30.03,10.0,Calm,Calm,-,N/A,,Clear,0,2013-02-06 01:35:00
7:55 PM,36.5,26.6,67,30.03,10.0,East,3.5,-,N/A,,Clear,80,2013-02-06 01:55:00
8:15 PM,33.8,26.6,75,30.03,10.0,NE,5.8,-,N/A,,Clear,50,2013-02-06 02:15:00
8:35 PM,34.0,26.6,74,30.04,10.0,Calm,Calm,-,N/A,,Clear,0,2013-02-06 02:35:00
8:55 PM,32.0,26.6,80,30.05,10.0,Calm,Calm,-,N/A,,Clear,0,2013-02-06 02:55:00
9:15 PM,33.6,27.1,77,30.05,10.0,SSW,3.5,-,N/A,,Clear,200,2013-02-06 03:15:00
9:35 PM,34.3,27.5,76,30.05,10.0,Calm,Calm,-,N/A,,Clear,0,2013-02-06 03:35:00
9:55 PM,32.4,26.8,80,30.06,10.0,Calm,Calm,-,N/A,,Clear,0,2013-02-06 03:55:00
10:15 PM,33.3,27.1,78,30.06,10.0,East,4.6,-,N/A,,Clear,90,2013-02-06 04:15:00
10:35 PM,33.1,27.3,79,30.07,10.0,ESE,3.5,-,N/A,,Clear,110,2013-02-06 04:35:00
10:55 PM,33.6,27.0,77,30.07,10.0,ESE,3.5,-,N/A,,Clear,120,2013-02-06 04:55:00
11:15 PM,34.2,27.5,77,30.06,10.0,SE,3.5,-,N/A,,Clear,130,2013-02-06 05:15:00
11:35 PM,34.7,27.5,75,30.05,10.0,ESE,3.5,-,N/A,,Clear,120,2013-02-06 05:35:00
11:55 PM,34.9,27.5,74,30.05,10.0,ESE,4.6,-,N/A,,Clear,120,2013-02-06 05:55:00